Lapse_Rate
6.5 6.6 6.5 6.4 6.6 6.7 6.6 6.8 6.8 7.0 7.2 7.3 7.4 7.4 7.4 7.3 7.1 7.1 6.8 6.8 6.8 6.8 6.8 6.9 6.8 7.5 8.2 8.2 8.5 8.6 8.9 9.3 9.2 9.0 9.2 8.8 8.6 8.6 8.4 8.3 8.2 8.1 7.8 7.7 7.5
6.3 6.3 6.7 6.8 6.6 6.7 6.7 6.8 6.8 6.9 7.0 7.1 7.3 7.4 7.4 7.3 7.1 7.0 6.9 6.9 6.8 6.8 7.0 6.9 7.1 7.6 7.8 8.3 8.5 8.5 9.1 9.2 8.9 8.9 8.6 8.6 8.4 8.2 8.1 8.1 8.0 7.7 7.5 7.4 7.3
6.1 6.4 6.4 6.4 6.6 6.8 6.6 6.7 6.9 6.8 7.1 7.3 7.3 7.3 7.3 7.2 7.1 7.1 6.9 6.9 6.9 6.9 7.0 7.0 7.4 7.5 7.6 8.2 8.4 8.8 9.0 8.8 8.7 8.6 8.5 8.4 8.4 8.3 8.1 7.8 7.3 7.2 7.3 7.2 7.1
6.3 6.3 6.4 6.5 6.6 6.7 6.8 6.8 6.8 7.1 7.2 7.4 7.4 7.3 7.2 7.1 6.9 6.9 6.9 6.9 6.9 6.9 7.0 7.0 7.4 7.5 7.6 8.1 8.4 8.9 8.8 8.9 8.8 8.6 8.6 8.2 8.2 7.9 7.7 7.6 7.7 7.2 7.1 7.1 7.0
6.5 6.6 6.7 6.6 6.6 6.7 6.9 7.0 7.0 7.1 7.4 7.5 7.5 7.4 7.3 7.1 7.2 6.9 6.9 6.9 6.8 6.8 6.9 7.0 7.3 7.5 7.9 8.0 8.4 8.8 8.7 8.9 8.9 8.8 8.7 8.4 8.1 7.8 7.7 7.6 7.4 6.5 6.6 6.6 6.5
6.1 6.5 6.7 6.8 6.6 6.8 6.9 6.8 7.0 7.1 7.5 7.6 7.6 7.5 7.4 7.3 7.2 7.1 7.0 6.9 6.8 6.7 6.6 6.6 7.2 7.6 7.7 8.0 8.3 8.6 8.9 9.0 8.8 8.7 8.6 8.3 8.2 7.9 7.8 7.5 7.1 6.3 6.1 6.1 5.9
5.5 5.8 6.2 6.5 6.7 6.7 6.8 7.1 6.9 6.8 7.4 7.7 7.6 7.5 7.4 7.2 7.1 7.1 7.1 6.9 6.8 6.7 6.4 6.6 7.1 7.5 7.8 8.0 8.2 8.3 8.5 8.8 8.7 8.5 8.3 8.3 8.1 7.8 7.7 7.4 7.1 6.2 5.9 5.7 5.6
5.3 5.4 5.7 5.9 6.3 6.7 6.7 7.0 6.8 6.9 7.1 7.6 7.6 7.5 7.7 7.3 7.1 7.1 7.1 6.8 6.7 6.8 6.5 6.8 7.1 7.4 7.6 8.1 8.2 8.3 8.6 9.3 8.8 8.6 8.4 8.3 9.0 8.2 7.9 7.6 7.0 6.2 5.4 5.5 5.4
5.4 5.3 5.5 5.7 5.9 6.2 6.4 6.6 6.6 6.7 7.1 7.3 7.5 7.3 7.8 7.6 7.2 7.1 7.1 6.8 6.6 6.7 6.6 6.7 7.2 7.3 7.6 8.0 8.5 8.7 9.3 9.3 9.0 8.6 8.1 8.2 8.9 8.4 8.3 7.9 7.4 6.8 5.9 5.6 5.2
5.6 5.6 5.5 5.5 5.6 5.7 5.9 6.0 6.1 6.5 7.0 7.1 7.4 7.3 7.5 7.5 7.3 7.3 7.1 6.7 6.6 6.7 6.6 6.8 7.0 7.2 7.5 7.9 9.4 9.4 9.2 8.8 9.0 8.6 8.1 8.7 8.7 8.5 8.5 8.3 7.9 7.6 7.3 6.9 6.1
5.7 5.6 5.6 5.6 5.7 5.8 5.8 5.8 5.8 6.1 6.6 7.1 7.3 7.6 7.7 7.6 7.3 7.2 7.0 6.6 6.7 6.7 6.7 6.9 7.1 7.5 8.0 7.9 8.4 8.5 8.8 9.1 9.3 8.1 8.2 8.7 9.0 8.6 8.6 8.8 8.2 7.8 7.5 7.5 7.4
5.8 5.6 5.5 5.6 5.5 5.7 5.9 5.5 5.7 5.7 6.0 6.9 7.0 7.6 7.3 7.3 7.5 7.3 7.2 6.6 6.8 6.9 6.7 7.0 7.3 7.6 7.3 7.4 7.8 8.1 8.4 8.8 8.4 8.1 8.2 8.9 9.0 8.8 9.0 8.7 8.4 8.1 7.9 7.6 7.6
6.2 5.9 5.7 5.6 5.5 5.7 5.6 5.4 5.8 5.8 5.4 7.2 6.8 7.4 7.6 6.7 7.2 7.4 7.2 6.7 6.8 6.9 6.9 7.4 7.5 7.4 7.3 7.2 7.5 7.8 7.9 8.1 8.1 8.0 8.5 8.6 9.0 9.1 9.1 9.0 8.7 8.5 8.0 7.8 7.8
6.4 6.2 5.9 5.7 5.5 5.5 5.5 5.2 5.8 5.6 5.5 6.2 7.3 7.0 7.7 7.2 6.9 7.2 7.2 6.9 6.7 7.1 7.0 7.2 7.5 7.4 7.1 7.4 7.5 7.8 7.8 7.8 7.9 8.1 9.4 8.7 9.5 9.2 9.0 9.1 9.0 8.7 8.3 8.1 8.2
6.2 6.5 6.4 5.9 5.7 5.9 5.8 5.4 5.6 5.6 6.3 6.6 6.7 6.9 7.1 7.3 7.0 7.3 7.1 6.8 7.0 7.0 6.9 7.5 7.5 7.5 7.2 7.5 7.5 7.8 7.8 7.7 7.9 8.2 8.5 8.7 9.2 9.5 9.1 9.1 9.0 9.0 8.8 8.3 8.0
5.5 6.3 6.6 6.4 6.0 6.3 6.1 5.5 5.3 5.8 6.0 6.3 6.3 6.7 6.6 6.9 6.5 7.1 7.0 6.8 7.1 7.0 6.8 7.4 7.5 7.6 7.5 7.5 7.6 7.6 7.6 7.6 7.7 8.2 9.0 8.9 9.0 9.6 9.4 9.1 9.0 9.0 8.8 8.6 8.3
4.9 5.4 6.4 6.3 6.4 6.4 6.1 5.8 5.5 5.5 5.9 6.2 6.6 6.6 6.7 6.6 6.3 6.9 6.6 6.4 6.7 6.8 6.9 7.2 7.4 7.6 7.6 7.5 7.6 7.7 7.9 9.1 8.6 8.5 9.3 8.1 8.5 9.3 9.1 8.8 8.8 8.8 8.9 8.8 8.5
4.9 4.8 5.6 6.3 6.5 6.5 5.8 5.8 5.1 5.5 5.8 6.5 6.2 6.5 6.6 6.4 6.1 6.7 6.6 6.7 7.0 7.2 7.6 7.5 7.6 7.5 7.8 7.8 8.2 8.0 8.3 9.3 8.9 9.0 9.6 7.8 8.5 9.1 8.6 8.5 8.5 8.7 8.8 8.8 8.7
5.1 4.8 4.8 5.8 6.3 6.2 5.8 5.2 4.9 5.5 5.4 6.2 6.6 6.4 6.1 6.8 6.5 6.4 6.6 6.8 7.1 7.1 7.6 7.6 7.9 7.8 7.9 8.0 8.0 7.8 8.2 8.4 8.3 8.3 8.4 8.7 8.3 8.4 8.4 8.3 8.3 8.4 8.6 8.7 8.8
5.7 4.9 4.9 5.0 5.5 5.7 5.7 4.9 5.0 5.3 5.7 6.5 6.4 6.8 6.7 6.8 6.8 6.7 6.6 6.7 6.9 7.0 7.6 7.7 8.1 7.8 7.8 8.1 8.0 8.1 8.2 8.3 8.2 8.3 8.3 9.1 8.6 8.7 8.6 8.3 8.3 8.3 8.1 8.4 8.6
5.9 4.9 5.2 5.0 5.0 5.4 4.8 4.6 4.7 5.1 5.5 6.1 6.4 6.6 6.9 7.1 7.0 7.3 7.2 7.1 7.1 7.1 7.2 7.6 7.8 7.4 7.9 7.6 8.4 7.9 8.1 8.3 8.6 8.4 8.9 8.6 9.1 8.4 8.7 8.4 8.1 8.2 8.2 8.4 8.5
5.9 5.3 5.6 5.5 5.4 5.0 4.5 4.7 4.8 5.0 5.4 6.4 6.6 6.7 7.0 7.2 7.4 7.5 7.6 7.5 7.8 7.4 7.2 7.4 7.7 7.9 8.0 7.9 8.1 8.3 8.4 8.5 8.5 9.0 8.3 8.2 8.2 8.6 8.4 8.5 8.4 8.2 8.3 8.2 8.2
5.5 5.6 5.9 5.9 5.6 4.9 4.5 4.1 4.7 5.2 5.6 5.8 6.5 7.3 7.0 7.1 7.5 7.6 7.8 8.2 8.3 7.9 7.5 7.2 7.3 7.9 7.9 7.6 7.8 7.8 7.9 8.1 8.2 8.5 8.6 8.5 8.3 8.6 8.5 8.5 8.4 8.3 8.2 8.2 8.3
5.7 5.9 6.2 5.8 5.8 5.8 4.3 4.3 4.5 4.7 5.4 5.4 6.0 7.3 7.1 7.3 7.3 7.6 8.3 7.9 8.3 8.2 7.9 8.2 8.1 7.8 8.0 8.5 8.7 8.2 8.3 8.2 8.5 8.7 8.4 8.4 8.5 9.0 8.9 8.5 8.4 8.3 8.4 8.3 8.3
5.5 5.3 6.1 5.4 5.2 4.4 4.3 4.3 4.7 5.1 5.0 5.6 5.4 6.3 6.9 7.2 7.0 7.8 8.2 8.0 8.5 8.2 8.1 7.9 7.7 7.5 7.8 8.3 8.6 8.3 8.4 8.3 8.2 8.3 8.8 8.5 8.8 8.9 8.7 8.6 8.4 8.2 8.1 8.0 8.0
5.6 5.2 5.4 5.7 6.4 5.9 4.4 4.2 4.5 5.1 5.5 5.5 5.4 6.2 6.8 7.3 7.5 7.5 7.9 8.1 8.1 8.5 8.2 8.0 8.0 7.6 7.7 7.8 8.2 8.2 8.3 8.4 8.2 8.4 8.5 8.4 8.3 8.5 8.3 7.8 7.9 7.9 7.9 7.9 7.8
5.2 5.5 5.7 6.5 5.6 5.4 5.0 3.8 3.9 4.9 5.4 5.8 6.0 6.7 7.1 8.1 7.7 7.1 7.6 7.5 7.4 7.5 7.6 7.8 8.0 7.6 7.6 7.6 7.6 7.3 7.9 8.1 8.4 8.5 8.4 8.3 8.5 8.3 7.9 7.5 7.6 7.5 7.5 7.5 7.6
Wind_Speed
15 14 14 14 13 14 16 17 18 19 18 20 22 24 24 22 23 7 4 3 1 7 9 9 7 6 6 6 5 4 6 3 3 5 4 2 3 1 2 3 2 2 2 5 13
14 15 17 16 17 16 15 16 17 18 18 20 22 23 25 23 11 9 4 3 3 14 8 9 8 8 5 5 4 7 5 0 3 7 9 5 3 3 5 3 4 4 3 10 12
16 16 15 16 17 18 18 17 18 18 19 20 21 24 26 21 7 3 3 8 9 9 4 4 2 6 7 4 6 3 8 7 6 7 8 5 2 2 5 6 4 4 6 10 12
19 20 20 19 18 16 18 20 19 18 19 20 19 22 30 6 4 4 5 7 13 8 7 6 6 7 7 7 4 8 5 7 8 4 3 1 1 2 5 8 9 6 9 9 10
17 17 18 18 18 18 18 20 20 20 18 18 18 18 11 8 7 2 2 9 12 10 9 6 6 5 7 3 4 9 7 5 3 3 1 0 3 3 5 9 8 6 11 10 8
16 17 17 18 18 19 21 21 21 22 18 17 15 14 6 11 3 5 8 8 7 11 8 6 2 3 5 4 6 1 5 2 3 4 3 4 1 5 7 4 6 4 4 7 9
19 17 17 19 18 18 20 21 23 22 19 17 12 5 8 15 2 7 4 4 7 8 6 5 4 6 2 3 1 1 6 6 4 2 1 6 9 1 6 1 5 6 6 5 9
21 19 17 19 21 21 20 22 26 23 17 12 5 5 8 2 5 9 8 9 8 9 7 3 3 6 7 1 4 6 6 7 5 4 2 5 7 6 8 5 7 12 10 6 10
17 19 19 18 20 23 22 25 28 16 5 3 6 4 9 5 6 9 14 9 9 8 6 0 4 5 5 9 8 7 6 5 4 3 1 5 8 8 9 7 8 10 8 12 10
16 17 19 17 19 22 24 26 21 3 3 4 3 4 8 3 2 4 10 12 6 9 6 7 6 9 9 9 9 6 8 4 7 4 6 9 10 6 10 9 8 7 10 9 14
15 15 16 16 17 19 17 6 5 5 5 8 2 4 4 5 3 8 7 10 12 10 10 7 8 10 12 12 8 9 7 7 6 3 7 8 10 8 12 11 10 10 9 11 12
15 14 17 15 15 15 9 5 3 3 11 13 20 21 19 8 5 9 9 14 13 15 9 6 12 4 3 5 8 9 9 12 7 2 4 8 9 6 14 14 12 12 12 14 15
15 11 13 15 14 8 9 8 1 5 6 8 10 13 12 15 11 13 14 16 17 18 14 13 1 4 9 8 10 10 11 8 8 5 8 9 11 9 10 12 13 13 13 14 17
12 15 12 14 8 4 5 2 5 6 5 5 7 7 11 10 11 16 16 14 9 19 14 11 8 8 10 10 10 10 8 10 7 6 5 3 3 7 10 13 15 15 16 17 18
14 15 16 12 7 4 3 4 3 4 6 6 5 5 7 16 8 18 17 11 19 12 10 12 9 11 12 12 9 7 3 7 6 7 6 9 6 7 4 10 14 19 19 19 19
15 14 17 10 10 10 3 10 3 6 10 3 6 8 8 15 5 15 13 10 11 13 10 12 2 5 4 6 9 2 6 4 5 5 7 2 5 2 5 3 3 5 17 20 20
18 16 15 14 7 7 11 4 6 13 4 5 5 7 12 11 10 15 23 22 16 17 17 15 14 6 6 9 8 9 8 6 6 6 5 4 5 9 8 4 5 8 6 14 20
21 18 14 15 18 12 4 5 14 8 25 3 2 8 9 13 11 15 23 21 24 19 13 15 14 14 11 13 8 14 11 5 6 5 4 3 5 2 3 4 7 6 7 7 13
19 9 6 6 19 8 5 14 15 18 7 19 3 7 9 12 6 13 21 24 23 20 13 16 15 6 7 5 10 7 8 1 1 1 4 5 7 11 4 4 6 3 4 5 9
10 9 11 14 13 6 9 28 18 15 12 7 17 9 12 14 11 14 17 19 24 23 17 7 11 7 7 7 3 5 11 5 4 5 7 6 8 7 5 1 1 4 5 2 2
8 5 7 21 8 7 15 20 26 15 12 10 9 9 7 10 18 15 13 5 25 20 20 11 7 6 8 11 12 6 7 4 3 3 4 4 4 3 6 3 5 4 5 4 1
8 6 10 17 11 6 19 29 11 24 15 7 4 5 4 5 12 16 18 13 19 22 23 19 8 9 12 4 5 10 12 13 6 7 3 4 8 7 10 5 6 7 7 4 3
6 4 7 17 12 16 25 28 25 17 26 10 9 6 2 3 6 14 9 5 13 19 19 16 10 9 9 7 5 8 11 12 7 3 11 9 8 3 5 7 9 9 6 7 5
6 6 7 12 19 29 22 23 31 26 18 20 7 5 5 3 5 2 5 3 10 20 5 17 14 17 13 14 10 13 16 15 15 10 12 13 17 13 13 14 12 8 5 6 6
8 8 15 12 18 27 29 21 25 26 27 19 19 15 12 4 3 3 2 3 4 4 8 12 16 17 17 15 12 16 14 16 17 18 17 14 17 13 14 15 13 5 3 5 7
9 7 15 10 28 30 25 27 31 32 24 25 21 21 11 11 3 5 4 7 1 3 6 6 11 11 13 11 12 15 16 15 17 16 14 17 18 14 15 10 10 9 6 6 4
10 14 13 17 22 19 24 29 30 27 28 29 22 17 23 18 6 0 3 5 6 4 4 3 9 6 12 7 6 8 15 15 15 13 15 16 17 14 14 14 14 8 6 5 4
Wind_Direction
332 315 315 318 320 326 329 331 332 333 332 326 326 326 324 324 316 247 246 75 175 144 207 148 177 161 194 188 217 261 251 244 245 265 17 56 281 216 331 232 224 329 310 64 132
334 338 332 316 317 321 321 324 327 329 329 327 326 325 322 328 306 264 77 148 168 161 186 185 178 182 201 195 206 245 274 16 331 317 323 335 311 307 240 222 231 207 131 127 139
331 327 328 324 314 315 316 319 323 326 325 326 326 325 321 322 285 132 42 184 173 195 233 191 219 224 240 218 204 213 267 8 310 319 307 326 264 197 283 256 314 256 171 158 162
332 334 328 322 321 308 311 315 318 321 322 320 324 327 319 285 321 118 340 203 190 214 208 174 185 224 248 224 197 259 262 293 296 347 278 324 62 299 331 342 304 278 148 160 167
320 319 321 320 319 315 309 308 311 315 316 313 321 329 322 287 263 64 67 155 177 210 215 186 193 242 250 262 234 258 290 295 280 206 100 98 32 354 16 8 345 189 153 151 112
316 319 318 322 321 321 314 304 307 310 309 306 314 318 280 273 91 142 116 148 202 206 191 201 235 282 267 278 269 351 287 194 170 161 162 279 221 298 75 63 97 66 126 126 136
310 315 317 318 319 315 312 309 307 305 304 301 300 270 259 261 217 194 214 209 192 230 197 203 235 248 312 242 206 194 239 188 176 202 294 277 207 160 93 31 107 126 113 157 143
307 311 318 316 319 317 313 312 306 301 302 299 239 211 259 216 227 242 215 227 224 244 264 257 217 283 267 68 211 235 242 228 139 209 116 261 53 149 141 154 104 120 135 123 143
296 301 311 316 316 319 315 309 298 299 288 155 187 230 261 142 226 230 206 214 201 215 223 184 205 264 223 241 220 205 257 241 166 236 209 248 334 146 160 162 130 142 135 131 125
285 296 298 312 316 320 315 301 295 206 158 213 250 236 237 204 159 177 190 209 191 160 151 199 212 234 220 226 232 223 231 229 281 140 245 272 271 167 186 187 158 154 151 143 146
282 291 304 306 317 323 319 302 248 202 204 237 167 260 270 323 225 199 178 179 203 211 214 192 225 225 221 214 278 279 257 261 265 335 276 269 270 189 192 206 176 179 167 163 163
280 287 292 307 316 320 296 280 333 358 296 244 252 251 258 295 287 205 171 191 197 207 192 197 230 234 239 192 224 221 247 273 279 163 286 275 268 198 190 206 205 194 180 170 165
282 287 298 304 318 286 252 265 289 303 264 277 230 239 229 202 226 215 187 205 201 208 205 230 118 175 198 191 220 238 259 261 260 312 245 271 245 207 199 205 210 217 207 196 184
277 288 283 309 283 262 242 194 297 222 275 234 223 232 188 197 224 209 200 193 204 209 210 229 228 205 216 236 228 246 234 247 248 256 245 222 268 191 198 207 216 219 212 207 201
254 267 280 259 316 229 82 12 100 240 287 124 171 119 163 197 131 192 185 198 205 185 195 205 200 207 226 232 204 253 187 217 248 242 272 176 252 116 177 227 226 216 219 214 207
248 248 263 264 246 248 260 317 188 236 240 251 160 181 165 207 210 147 172 216 224 188 215 217 145 224 249 190 201 120 182 200 235 228 237 187 265 226 182 290 296 239 216 216 215
240 239 242 240 233 227 251 250 208 231 89 206 204 182 201 187 201 183 179 187 187 191 204 201 212 205 200 186 170 201 223 212 212 208 242 115 232 272 302 293 274 288 263 226 219
232 228 240 230 250 277 227 188 229 233 219 99 264 187 201 178 211 194 186 192 207 205 193 203 209 208 193 233 214 202 225 243 242 216 206 162 245 219 357 287 301 282 268 246 229
218 228 228 223 234 254 232 207 222 218 219 232 237 210 207 199 216 187 199 201 197 203 200 201 214 145 205 194 212 163 211 38 214 7 267 253 236 259 260 277 296 293 238 242 230
212 224 224 201 227 213 220 226 215 222 207 216 224 218 203 194 197 200 189 211 204 203 214 192 212 204 149 174 154 256 143 182 214 227 240 207 244 258 206 157 34 4 19 59 188
199 222 189 191 188 217 216 220 221 204 216 213 222 234 228 191 205 200 197 174 201 197 212 201 232 150 178 208 191 169 199 230 274 268 255 271 257 177 231 288 280 322 324 348 326
189 205 180 177 197 222 221 215 224 216 210 234 241 234 230 222 206 209 213 216 197 183 193 198 216 214 207 138 263 259 232 211 233 211 240 284 270 240 250 272 244 274 275 280 267
183 191 190 183 199 222 228 222 217 205 218 202 213 215 177 249 226 218 217 201 191 187 194 177 207 202 202 196 188 217 209 226 246 263 241 254 270 155 215 249 243 251 257 256 246
162 173 198 203 214 213 216 220 216 225 228 216 220 202 192 222 234 263 223 177 195 206 179 174 204 214 225 228 216 214 232 220 225 238 253 245 272 271 252 260 257 227 222 236 245
184 198 181 195 209 218 217 211 213 209 215 213 220 222 204 200 216 197 246 156 160 167 190 199 221 221 233 245 249 239 242 222 227 239 246 251 262 272 278 281 259 256 229 238 256
176 194 179 203 204 208 216 224 211 209 195 209 215 204 200 217 233 120 32 42 39 147 183 197 219 207 216 222 229 244 247 249 230 244 257 260 269 282 278 279 251 248 264 273 278
197 203 195 205 205 198 211 214 226 208 223 210 204 211 213 220 134 150 333 320 317 325 201 217 217 201 234 215 221 254 234 224 226 227 236 257 272 288 274 263 252 255 263 291 314